User: anonymous   Login
Location: Unspecified
(0.0000°N, 0.0000°E)
Time: 05:02:21
(UTC+00:00)
Language:

COSMOS 2468 - Orbit

View from above orbital plane
View from above orbital plane
View from above satellite
View from above satellite

Ground track
Ground track

The orbit data is extracted from the following two-line orbital elements,

1 37154U 10043C   15184.77943925  .00000028  00000-0  12970-3 0  9995
2 37154 082.4627 047.2452 0014975 052.6469 307.5970 12.42900888218557
Epoch (UTC): 03 July 2015 18:42:23
Eccentricity: 0.0014975
inclination: 82.4627°
perigee height: 1482 km
apogee height: 1506 km
right ascension of ascending node: 47.2452°
argument of perigee: 52.6469°
revolutions per day: 12.42900888
mean anomaly at epoch: 307.5970°
orbit number at epoch: 21855

The dashed part of the orbit path shows where the satellite is in the earth's shadow,  

DLR